Championnats du monde

Internationale

KAZAN

Du Dimanche 02 Août 2015 au Dimanche 09 Août 2015

Bassin de 50m

1500 Nage Libre Messieurs

Séries

Nom Année Club Pays Temps Points Niv.
1 PALTRINIERI Gregorio 1994 ITALIE ITA 14:51:04 1381
2 JAEGER Connor 1991 ETATS-UNIS USA 14:53:34 1376
3 SUN Yang 1991 CHINE CHN 14:55:11 1372
4 MILNE Stephen-Alistair 1994 GRANDE-BRETAGNE GBR 14:55:17 1372
5 AHMED Akram 1996 EGYPTE EGY 14:55:42 1371
6 COCHRANE Ryan 1988 CANADA CAN 14:55:96 1370
7 MCBROOM Michael 1991 ETATS-UNIS USA 14:57:07 1367
8 ROMANCHUK Mykhailo 1996 UKRAINE UKR 14:57:82 1366
9 JOENSEN Pal 1990 ILES FÉROÉ FAR 14:58:52 1364
10 JOLY Damien 1992 CN ANTIBES FRA 14:58:79 1363
11 HORTON Mack 1996 AUSTRALIE AUS 15:00:51 1359
12 CHRISTIANSEN Henrik 1996 NORVÈGE NOR 15:02:37 1355
13 NAGY Richard 1993 SLOVAQUIE SVK 15:04:03 1351
14 STRAUB Ruwen 1993 ALLEMAGNE GER 15:04:80 1350
15 BRZOSKOWSKI Maarten 1995 PAYS-BAS NED 15:10:91 1335
16 SANCHEZ Marc 1992 ESPAGNE ESP 15:12:79 1331
17 WOJDAK Wojciech 1996 POLOGNE POL 15:14:28 1328
18 NAIDICH Martin 1990 ARGENTINE ARG 15:14:38 1328
19 WANG Kecheng 1996 CHINE CHN 15:16:69 1322
20 GYURTA Gergely 1991 HONGRIE HUN 15:16:84 1322
21 CAPP Nathan 1992 NOUVELLE-ZÉLANDE NZL 15:17:77 1320
22 ENDERICA SALGADO Esteban 1990 EQUATEUR ECU 15:20:58 1313
23 MICKA Jan 1995 RÉPUBLIQUE TCHÈQUE CZE 15:22:16 1310
24 BAU Martin 1994 SLOVÉNIE SLO 15:22:80 1308
25 ACOSTA Marcelo 1996 SALVADOR ESA 15:25:14 1303
26 CEPRKALO Mihajlo 1999 BOSNIE-HERZÉGOVINE BIH 15:26:22 1301
27 MAKSUMOV Ernest 1997 RUSSIE RUS 15:26:64 1300
28 FROLOV Sergii 1992 UKRAINE UKR 15:29:52 1293
29 MEISSNER Sören 1990 ALLEMAGNE GER 15:30:02 1292
30 WEERTMAN Ferry 1992 PAYS-BAS NED 15:32:01 1288
31 KARAP Nezir 1994 TURQUIE TUR 15:32:60 1286
32 GOMEZ Alejandro 1985 VENEZUELA VEN 15:32:75 1286
33 CELIC Vuk 1995 SERBIE SRB 15:33:71 1284
34 CHO Cheng-Chi 1998 TAÏWAN TPE 15:37:25 1276
35 PRAKASH Sajan-Prakash 1993 INDE IND 15:45:29 1258
36 TAPIA SALINAS Felipe 1995 CHILI CHI 15:45:63 1257
37 AUBOCK Felix 1996 AUTRICHE AUT 15:45:69 1257
38 BAYO PUNTER Christian-B 1991 PORTO RICO PUR 15:46:19 1256
39 SAEMUNDSSON Sven-Arnar 1996 CROATIE CRO 15:53:43 1240
40 SANCOV Alexei 1999 MOLDAVIE MDA 15:53:85 1239
41 LAM Quang-Nhat 1997 VIET NAM VIE 15:54:56 1237
42 VENTURA Luis-Gerardo 1995 MEXIQUE MEX 15:55:92 1234
43 SIM WEE SHENG Welson-Sim 1997 MALAISIE MAS 16:09:72 1204
44 BUTLER Geoffrey 1995 ILES CAÏMANS CAY 16:21:18 1179
45 ARIAS DOURDET Pol 1996 ANDORRE AND 16:26:35 1168
46 KOSKI Matias 1994 FINLANDE FIN - Disq.
47 BERNEK Peter 1992 HONGRIE HUN - Disq.
48 DE ANGULO VELAZCO Mateo 1990 COLOMBIE COL - Disq.

Finale A

Nom Année Club Pays Temps Points Niv.
1 PALTRINIERI Gregorio 1994 ITALIE ITA 14:39:67 1408
2 JAEGER Connor 1991 ETATS-UNIS USA 14:41:20 1405
3 COCHRANE Ryan 1988 CANADA CAN 14:51:08 1381
4 AHMED Akram 1996 EGYPTE EGY 14:53:66 1375
5 MILNE Stephen-Alistair 1994 GRANDE-BRETAGNE GBR 14:58:62 1364
6 MCBROOM Michael 1991 ETATS-UNIS USA 15:06:81 1345
7 ROMANCHUK Mykhailo 1996 UKRAINE UKR 15:09:77 1338
8 SUN Yang 1991 CHINE CHN - Disq.